IRIDIUM 33 DEB, 33850

Orbit data source: Space-Track

IRIDIUM 33 DEB, 33850 is space debris in LEO originally from a launch on Sun, 14 Sep 1997 UTC launched from the Tyuratam Missile And Space Complex (TTMTR). The debris from Iridium 33, an American commercial communications satellite, has been tracked extensively since its accidental collision with the defunct Russian satellite Cosmos 2251 in 2009. This event, occurring at high speed in low Earth orbit (LEO), generated thousands of pieces of space debris, significantly increasing the risk of further collisions. The Iridium 33 debris cloud has impacted space traffic management and orbital debris mitigation strategies, making it a subject of ongoing study in space situational awareness.

Loading next visibility...
Identifier
33850, 1997-051T
Orbit
LEO
Country
Flag of USUS
Related business
Manufacturer
Unknown
Mission
Spacecraft
Bus & Motor
Unknown
Mass
Unknown
Launch date (UTC)
1997-09-14 (29 years ago)
Launch vehicle
Unknown
Launch site
Tyuratam Missile And Space Complex (TTMTR)
Object type
Payload
Rocket body
Debris
Shape & HBR
Unknown shape, 0.5 m
Radar Cross Section
Medium (>0.1 m² and <1 m²)

Expand to show TLE details & history
Last TLE update: 5 hours ago

TLE from 5 hours ago
0 IRIDIUM 33 DEB
1 33850U 97051T   26169.62841740  .00000687  00000-0  20068-3 0  9997
2 33850  86.3406 309.3677 0009168 267.3768 103.8754 14.42684182908618
Epoch: 2026-06-18T15:04Z
TLE epoch observation values (Epoch: 2026-06-18T15:04:55.263Z)
Latitude
11.28139°
Longitude
176.99552°
Altitude
753.519 km
Speed
7.478 km/s
True Right ascension
20h 40m 22s
True Declination
11° 12' 56"
Sunlit
Object was in full shadow at epoch
Visualization orbit readout
Latitude
Unknown
Longitude
Unknown
Altitude
Unknown
Speed
Unknown
Apparent Right ascension
Unknown
Apparent Declination
Unknown
Sunlit
N/A
Visualization observer readout
Local Sidereal Time
07:10:04
Azimuth
Unknown
Elevation
Unknown
Doppler factor
Unknown
Orbital elements
Apogee altitude
753.129 km
Perigee altitude
740.065 km
Semi-major axis
7,124.734 km
Eccentricity
0.00092
Inclination
86.3406°
RAAN
309.3677°
Arg. of periapsis
267.3768°
True anomaly
103.97736°
Mean anomaly
103.8754°
Eccentric anomaly
103.92638°
Mean motion
3.60903 °/min
Orbital period
99.75 mins
BSTAR
0.00020068
Loading maneuver chart data...
Computing Atmospheric mass density...

Documentation

Showing up to 5 results
|